Regional Weather Roundup
Issued by NWS

Home | Current Version | Previous Version | Text Only | Print | Product List | Glossary On
Versions: 1 2 3 4 5 6 7 8 9 10 11 12 13 14 15 16 17 18 19 20 21 22 23 24 25 26 27
000
ASUS44 KJAN 260620
RWRMS

MISSISSIPPI HOURLY WEATHER ROUNDUP
NATIONAL WEATHER SERVICE JACKSON MS
100 AM CDT FRI AUG 26 2016

NOTE: "FAIR: INDICATES FEW OR NO CLOUDS BELOW 12,000 FEET WITH NO
SIGNIFICANT WEATHER AND/OR OBSTRUCTIONS TO VISIBILITY.

MSZ001>002-007>008-010>013-018>021-025>028-034>036-260700-
NORTHWEST MISSISSIPPI

CITY           SKY/WX    TMP DP  RH WIND       PRES   REMARKS
GREENWOOD      FAIR      76  72  87 CALM      30.08F
6HR MIN TEMP:  76; 6HR MAX TEMP:  81;

GREENVILLE     FAIR      77  73  87 CALM      30.07F
6HR MIN TEMP:  76; 6HR MAX TEMP:  81; 6HR PCP:  0.13;

$$

MSZ003>006-009-014>017-022>024-029>033-037>039-260700-
NORTHEAST MISSISSIPPI

CITY           SKY/WX    TMP DP  RH WIND       PRES   REMARKS
COLUMBUS AFB   FAIR      78  75  91 E2        30.07S
6HR MIN TEMP:  78; 6HR MAX TEMP:  91;

CORINTH        FAIR      77  75  94 CALM      30.08S FOG
GOLDN TRIANGLE FAIR      81  70  69 CALM      30.07F
TUPELO         FAIR      79  74  84 N3        30.08F
6HR MIN TEMP:  79; 6HR MAX TEMP:  93;

$$

MSZ040-058-260700-
CENTRAL MISSISSIPPI

CITY           SKY/WX    TMP DP  RH WIND       PRES   REMARKS
JACKSON INTL   FAIR      76  73  91 CALM      30.09S
6HR MIN TEMP:  76; 6HR MAX TEMP:  87; 6HR PCP:  0.70;

JACKSON HAWKNS FAIR      75  73  93 N5        30.09F
6HR MIN TEMP:  75; 6HR MAX TEMP:  80; 6HR PCP:  0.19;

MERIDIAN KEY   FAIR      80  76  87 CALM      30.09S
6HR MIN TEMP:  79; 6HR MAX TEMP:  87;

MERIDIAN NAS   FAIR      76  72  87 CALM      30.09S
6HR MIN TEMP:  76; 6HR MAX TEMP:  89; 6HR PCP:  0.01;

$$

MSZ059>079-260700-
SOUTH MISSISSIPPI

CITY           SKY/WX    TMP DP  RH WIND       PRES   REMARKS
HATTIESBURG    FAIR      76  74  93 CALM      30.08F
6HR MIN TEMP:  75; 6HR MAX TEMP:  81;

MCCOMB         FAIR      74  72  93 CALM      30.08F
6HR MIN TEMP:  74; 6HR MAX TEMP:  76;

NATCHEZ        FAIR      73  72  94 CALM      30.07F
6HR MIN TEMP:  73; 6HR MAX TEMP:  77;

PINE BELT      FAIR      73  70  88 CALM      30.09F
6HR MIN TEMP:  66; 6HR MAX TEMP:  79;

$$

MSZ080>082-260700-
COASTAL MISSISSIPPI

CITY           SKY/WX    TMP DP  RH WIND       PRES   REMARKS
BILOXI         FAIR      77  77 100 NE8       30.05S
6HR MIN TEMP:  77; 6HR MAX TEMP:  85;

PASCAGOULA     FAIR      77  77 100 N3        30.06S
6HR MIN TEMP:  76; 6HR MAX TEMP:  83;

GULFPORT       FAIR      77  76  96 N5        30.05S
6HR MIN TEMP:  77; 6HR MAX TEMP:  84;

$$

LAZ007>009-015>016-023>026-260700-
NORTHEAST LOUISIANA

CITY           SKY/WX    TMP DP  RH WIND       PRES   REMARKS
BASTROP        FAIR      74  73  99 CALM      30.07F
TALLULAH/VBURG FAIR      75  73  93 CALM      30.07F
6HR MIN TEMP:  75; 6HR MAX TEMP:  84; 6HR PCP:  0.69;

$$




USA.gov is the U.S. government's official web portal to all federal, state and local government web resources and services.